Regional Weather Roundup
Issued by NWS

Home | Current Version | Previous Version | Graphics & Text | Print | Product List | Glossary On
Versions: 1 2 3 4 5 6 7 8 9 10 11 12 13 14 15 16 17 18 19 20 21 22 23 24 25 26 27 28 29 30 31 32 33 34 35 36 37 38 39 40 41 42 43 44 45 46 47 48 49 50
000
ASUS43 KLSX 200707
RWRMO

WEATHER SUMMARY FOR MISSOURI
NATIONAL WEATHER SERVICE SPRINGFIELD MO
200 AM CDT FRI OCT 20 2017

NOTE: "FAIR" INDICATES FEW OR NO CLOUDS BELOW 12,000 FEET WITH NO
       SIGNIFICANT WEATHER AND/OR OBSTRUCTIONS TO VISIBILITY.
       CURRENT SKY AND/OR WEATHER CONDITIONS ARE NOT AVAILABLE FOR
       CHILLICOTHE AND FARMINGTON.

MOZ001>031-035>038-043-044-053-054-200800-
...NORTHERN AND WESTERN MISSOURI...

CITY           SKY/WX    TMP DP  RH WIND       PRES   REMARKS
KANSAS CTY INT FAIR      61  53  75 S14       30.08S
KANSAS C DTWN  FAIR      62  53  72 SW8       30.08S
LEE`S SUMMIT   FAIR      62  53  72 SW12      30.10S
ST JOSEPH      FAIR      57  53  86 S6        30.07R
CHILLICOTHE      N/A     51  50  96 CALM      30.10R
KIRKSVILLE     FAIR      57  52  83 S6        30.10S

$$
MOZ066>068-077>081-088>096-101>105-200800-
...SOUTHWEST MISSOURI...

CITY           SKY/WX    TMP DP  RH WIND       PRES   REMARKS
SPRINGFIELD    FAIR      57  50  77 S9        30.14S
JOPLIN         FAIR      56  52  86 S8        30.14S
BRANSON        FAIR      54  48  82 CALM      30.18R

$$
MOZ032>034-039>042-045>050-055>058-069>072-200800-
...CENTRAL MISSOURI...

CITY           SKY/WX    TMP DP  RH WIND       PRES   REMARKS
COLUMBIA       FAIR      57  49  74 S6        30.13S
JEFFERSON CITY FAIR      51  48  89 E3        30.13S
ROLLA          FAIR      61  51  70 S13       30.16S
SEDALIA        FAIR      61  51  70 S10       30.12S
WHITEMAN AFB   CLEAR     53  49  85 S10       30.07S
WARRENSBURG    FAIR      54  50  87 S5        30.10S
OSAGE BEACH    FAIR      57  49  74 S6        30.15R

$$
MOZ051-052-059>065-200800-
...EAST CENTRAL MISSOURI...

CITY           SKY/WX    TMP DP  RH WIND       PRES   REMARKS
ST LOUIS INTL  FAIR      62  51  67 S5        30.16S
SPIRIT OF STL  FAIR      50  49  96 CALM      30.15S FOG
ST CHARLES     FAIR      51  49  92 E7        30.15S

$$
MOZ072>076-082>087-097>100-106>115-200800-
...SOUTH CENTRAL AND SOUTHEAST MISSOURI...

CITY           SKY/WX    TMP DP  RH WIND       PRES   REMARKS
CAPE GIRARDEAU FAIR      45  43  93 CALM      30.20R
FARMINGTON     FAIR      55  49  80 CALM      30.19S
POPLAR BLUFF   FOG       48  48 100 CALM      30.20S VSB 1/2
WEST PLAINS    FAIR      57  49  74 S3        30.20S

$$


USA.gov is the U.S. government's official web portal to all federal, state and local government web resources and services.